TIME,DELAY(SENSOR),PRES,OXYGEN,RAWTEMP,T(OPTODE),TCPHASE,FLUOR,BETA(BETA700),BETA(BETA412),BETA(BETA440),CDOM,C(CSC),ED(ED412.20),ED(ED444.00),ED(ED489.60),ED(ED554.30),LU(LU412.10),LU(LU443.90),LU(LU489.70),LU(LU554.70),COMP,TILTX,TILTY,CHECK
1363752775,5807,883.0300292968750000,34.8234291076660160,562.0172729492188000,4.4233608245849610,56.3324890136718750,55,99,100,78,81,15505,0,0,0,0,2147124416,2147769371,2147571483,2147569700,666,2,13,65019
1363756372,5808,953.5200195312500000,39.8805503845214840,567.9434204101562000,4.2394537925720215,55.6096382141113300,55,98,100,77,83,15502,0,0,0,0,2147124306,2147777664,2147571282,2147567314,2578,2,13,55554
1363759972,5807,960.3900146484375000,40.7567787170410160,569.1450195312500000,4.2021269798278810,55.4951210021972660,55,144,100,78,80,15504,0,0,0,0,2147123849,2147774683,2147575597,2147567881,291,2,13,48299
1363763572,5810,988.3099975585938000,42.6812400817871100,573.2457275390625000,4.0746541023254395,55.2581214904785160,55,100,100,79,82,15504,0,0,0,0,2147125458,2147770304,2147572790,2147569618,3509,2,13,63302
1363767172,5809,988.5399780273438000,42.9063491821289060,573.4857177734375000,4.0671901702880860,55.2287788391113300,56,97,100,77,83,15503,0,0,0,0,2147124562,2147767177,2147570605,2147569472,124,2,13,51622
1363770772,5807,993.3099975585938000,42.9887809753418000,573.7069702148438000,4.0603051185607910,55.2146987915039060,55,100,99,77,82,15502,0,0,0,0,2147125677,2147772672,2147569078,2147567689,426,2,13,7068
1363774372,5808,993.4099731445312000,42.5344200134277340,573.4506835937500000,4.0682787895202640,55.2828483581543000,54,98,100,78,82,15503,0,0,0,0,2147123337,2147768841,2147571392,2147565165,527,2,13,32630
1363777972,5809,999.7100219726562000,42.4318809509277340,573.5167236328125000,4.0662269592285160,55.2970695495605500,55,98,100,77,82,15502,0,0,0,0,2147126994,2147769526,2147574720,2147565824,438,2,13,34773
1363781572,5808,1006.2199707031250000,42.6816291809082000,573.7202148437500000,4.0598950386047360,55.2589187622070300,55,98,100,78,82,15502,0,0,0,0,2147125248,2147771099,2147573787,2147567195,157,2,13,29343
1363785172,5811,1000.6099853515625000,42.3706588745117200,573.5736083984375000,4.0644550323486330,55.2999992370605500,55,98,100,77,82,15497,0,0,0,0,2147126034,2147777344,2147570825,2147567597,3439,2,13,9833
1363788772,5807,1006.6400146484375000,42.3320503234863300,573.4987792968750000,4.0667800903320310,55.3066596984863300,55,99,101,78,82,15501,0,0,0,0,2147125732,2147774491,2147571556,2147566784,427,2,13,36106
1363792372,5812,1003.1099853515625000,41.8070602416992200,573.5667114257812000,4.0646710395812990,55.3847999572753900,55,99,101,78,82,15502,0,0,0,0,2147124288,2147766738,2147569453,2147565888,3549,2,13,34047
1363795972,5809,1001.0999755859375000,42.7797508239746100,574.2158203125000000,4.0444769859313965,55.2540206909179700,55,98,101,77,82,15501,0,0,0,0,2147121974,2147765531,2147575286,2147568374,571,3,13,23965
1363799572,5810,1001.8099975585938000,42.7574501037597660,574.6649780273438000,4.0304999351501465,55.2601890563964840,55,104,100,78,81,15501,0,0,0,0,2147123145,2147767040,2147571602,2147568740,3536,2,13,34161
1363803172,5809,1004.0300292968750000,42.3496589660644500,574.1240844726562000,4.0473289489746090,55.3126716613769500,55,96,100,77,82,15498,0,0,0,0,2147125686,2147771730,2147572489,2147567689,142,3,13,55258
1363806772,5810,1004.0200195312500000,42.5669097900390600,574.3952026367188000,4.0388951301574710,55.2869186401367200,55,98,101,77,81,15497,0,0,0,0,2147124745,2147771218,2147571931,2147568923,95,2,13,64459
1363810372,5807,1006.6799926757812000,42.4813003540039060,573.8991088867188000,4.0543289184570310,55.2904396057128900,55,98,100,77,81,15496,0,0,0,0,2147125348,2147769307,2147572425,2147570368,206,2,13,47985
1363813972,5808,1005.1699829101562000,42.1100502014160160,574.2988891601562000,4.0418910980224610,55.3506011962890600,54,98,100,79,81,15499,0,0,0,0,2147124617,2147770678,2147574912,2147570377,520,2,13,40069
1363817572,5807,1006.4099731445312000,42.2456283569335940,574.2874145507812000,4.0422501564025880,55.3342208862304700,54,98,100,79,81,15500,0,0,0,0,2147123949,2147765348,2147571282,2147567451,318,3,13,11383
1363821172,5810,1009.8499755859375000,42.0084495544433600,573.7659301757812000,4.0584721565246580,55.3621902465820300,56,98,101,78,82,15498,0,0,0,0,2147124534,2147772132,2147575241,2147571894,538,2,13,14511
1363824772,5809,1015.0499877929688000,42.0222091674804700,572.0463867187500000,4.1119480133056640,55.3394889831543000,55,98,99,79,82,15497,0,0,0,0,2147122642,2147765860,2147573394,2147566546,27,2,13,3287
1363828372,5811,1006.4899902343750000,41.8953514099121100,573.4956054687500000,4.0668811798095700,55.3710594177246100,55,111,99,78,82,15502,0,0,0,0,2147121033,2147767369,2147571922,2147567497,49,2,13,1014
1363831972,5808,1003.0399780273438000,42.2755699157714840,573.1785888671875000,4.0767397880554200,55.3154792785644500,55,97,100,78,81,15499,0,0,0,0,2147125037,2147767643,2147572324,2147568064,502,2,13,31313
1363835572,5808,1002.2000122070312000,42.5900115966796900,574.4251708984375000,4.0379619598388670,55.2835807800293000,55,99,100,78,83,15483,0,0,0,0,2147123611,2147767213,2147572717,2147566025,2453,2,13,63859
1363839172,5810,1004.2500000000000000,42.6356811523437500,574.9707031250000000,4.0209879875183105,55.2842903137207000,55,100,100,77,81,15496,0,0,0,0,2147125211,2147773229,2147574518,2147568009,863,2,13,57818
1363842772,5809,1002.0700073242188000,42.6687812805175800,575.7659301757812000,3.9962430000305176,55.2868003845214840,55,110,99,78,82,15496,0,0,0,0,2147125741,2147765979,2147574244,2147569051,182,2,13,51499
1363846372,5807,999.9199829101562000,42.5890617370605500,576.0748291015625000,3.9866280555725098,55.3009986877441400,55,97,103,77,81,15495,0,0,0,0,2147126043,2147769810,2147572425,2147564553,330,2,13,9406
1363849972,5812,1005.6300048828125000,42.5077400207519500,575.4019165039062000,4.0075697898864750,55.3056182861328100,55,98,101,78,81,15495,0,0,0,0,2147124434,2147771556,2147571858,2147568210,200,2,13,39047
1363853572,5810,1005.0200195312500000,42.0029907226562500,575.0927734375000000,4.0171890258789060,55.3763389587402340,55,98,100,78,81,15494,0,0,0,0,2147126537,2147767177,2147577837,2147572068,84,3,13,40981
1363857172,5812,1003.5200195312500000,42.3028602600097660,576.2282104492188000,3.9818499088287354,55.3446693420410160,55,97,100,78,82,15491,0,0,0,0,2147125906,2147766573,2147575634,2147566793,381,2,13,8849
1363860772,5810,1004.7000122070312000,42.5469207763671900,576.0460815429688000,3.9875180721282960,55.3090591430664060,54,97,99,78,83,15493,0,0,0,0,2147125065,2147766317,2147574116,2147567488,3565,2,13,29542
1363864372,5807,1007.7000122070312000,42.1373596191406250,575.1021118164062000,4.0168991088867190,55.3534317016601560,55,104,100,78,81,15488,0,0,0,0,2147128384,2147773467,2147570368,2147565787,128,2,13,7519
1363867972,5812,1008.4899902343750000,42.4215316772460940,575.0006713867188000,4.0200538635253910,55.3130187988281250,56,98,99,78,83,15487,0,0,0,0,2147126326,2147771291,2147575085,2147568804,104,2,13,7666
1363871572,5808,1018.6099853515625000,42.6524009704589840,574.0156860351562000,4.0507011413574220,55.2671699523925800,55,97,100,78,82,15484,0,0,0,0,2147124205,2147772132,2147574326,2147568338,3514,2,13,19031
1363875172,5809,1012.7700195312500000,41.3823204040527340,573.5336914062500000,4.0656971931457520,55.4515190124511700,54,98,100,77,83,15487,0,0,0,0,2147125970,2147767698,2147571693,2147567350,734,2,13,406
1363878772,5809,1008.5100097656250000,41.7126197814941400,573.6638183593750000,4.0616512298583980,55.4038505554199200,54,98,100,78,81,15485,0,0,0,0,2147126290,2147764699,2147574208,2147569856,279,2,13,32234
1363882372,5810,1009.6199951171875000,42.6380004882812500,574.5084228515625000,4.0353760719299320,55.2728805541992200,54,98,121,77,81,15485,0,0,0,0,2147123346,2147764626,2147576356,2147568320,142,2,13,49174
1363885972,5809,1007.8400268554688000,42.5404891967773440,574.2650146484375000,4.0429477691650390,55.2885704040527340,55,97,99,78,83,15484,0,0,0,0,2147125083,2147768932,2147574619,2147566043,296,3,13,55981
1363889572,5810,1007.2000122070312000,42.1430892944335940,575.6569824218750000,3.9996299743652344,55.3585815429687500,55,100,100,77,82,15481,0,0,0,0,2147126710,2147768164,2147570459,2147565632,269,2,13,24752
1363893172,5810,1010.6500244140625000,42.6019706726074200,574.3941040039062000,4.0389289855957030,55.2818908691406250,55,98,98,77,83,15485,0,0,0,0,2147128685,2147776457,2147572790,2147569197,668,2,13,60128
1363896772,5808,1016.8800048828125000,42.7551002502441400,574.1569824218750000,4.0463070869445800,55.2566413879394500,54,98,100,77,82,15485,0,0,0,0,2147124635,2147765211,2147573568,2147567003,457,2,13,45315
1363897557,5808,1013.6300048828125000,42.5913581848144500,574.0944213867188000,4.0482540130615230,55.2775382995605500,54,98,100,77,81,15486,0,0,0,0,2147122953,2147768457,2147576064,2147566976,485,2,13,12350
